AMX918 MMLO-KMDW

Flight info

Callsign AMX918
Flight time N/A
Altitude 34000
Route BJX3B BJX UJ40 SLP UJ31 SLW/N0451F350 UJ83 PNG DCT OCILU DCT PAVEE DCT HINKO DCT JCT DCT GONEY DCT BWD DCT DBLSS DCT NUKLZ DCT IMPCO DCT KLAWW DCT VINTA DCT HLV DCT MAGOO ENDEE8
Aircraft B738/M-SDE2E3FGHIRWXY/LB1

Departure

Time N/A
Airport Guanajuato International Airport (MMLO)

Arrival

Time 2026-05-06 01:42
Airport Chicago Midway International Airport (KMDW)
Time Latitude Longitude Altitude Speed Heading
2026-05-05 23:45 31.53764 -99.24185 33796 ft 549 kts 26°
2026-05-05 23:45 31.60039 -99.19161 33800 ft 550 kts 26°
2026-05-05 23:46 31.66393 -99.14068 33797 ft 551 kts 26°
2026-05-05 23:46 31.72685 -99.09045 33798 ft 548 kts 26°
2026-05-05 23:47 31.79023 -99.04003 33793 ft 551 kts 26°
2026-05-05 23:47 31.85350 -98.98953 33795 ft 549 kts 26°
2026-05-05 23:48 31.91771 -98.94039 33797 ft 547 kts 21°
2026-05-05 23:48 31.98362 -98.89796 33801 ft 542 kts 18°
2026-05-05 23:49 32.05068 -98.85800 33801 ft 537 kts 17°
2026-05-05 23:49 32.11744 -98.81786 33808 ft 538 kts 18°
2026-05-05 23:50 32.18385 -98.77714 33804 ft 535 kts 18°
2026-05-05 23:50 32.24958 -98.73629 33806 ft 536 kts 18°
2026-05-05 23:51 32.31528 -98.69527 33803 ft 535 kts 18°
2026-05-05 23:51 32.38148 -98.65385 33805 ft 535 kts 18°
2026-05-05 23:52 32.44656 -98.61294 33806 ft 533 kts 18°
2026-05-05 23:52 32.51255 -98.57170 33803 ft 537 kts 18°
2026-05-05 23:53 32.57835 -98.53024 33803 ft 534 kts 18°
2026-05-05 23:53 32.64372 -98.48888 33802 ft 531 kts 18°
2026-05-05 23:54 32.70905 -98.44777 33803 ft 535 kts 18°
2026-05-05 23:54 32.77472 -98.40650 33808 ft 532 kts 18°
2026-05-05 23:55 32.84015 -98.36521 33806 ft 530 kts 17°
2026-05-05 23:55 32.90492 -98.32421 33815 ft 529 kts 18°
2026-05-05 23:56 32.97024 -98.28290 33815 ft 533 kts 18°
2026-05-05 23:56 33.03587 -98.24131 33822 ft 534 kts 18°
2026-05-05 23:57 33.10107 -98.19981 33837 ft 534 kts 18°
2026-05-05 23:57 33.16659 -98.15801 33839 ft 534 kts 18°
2026-05-05 23:58 33.23197 -98.11611 33837 ft 536 kts 18°
2026-05-05 23:58 33.29748 -98.07406 33827 ft 534 kts 18°
2026-05-05 23:59 33.36315 -98.03207 33831 ft 537 kts 18°
2026-05-05 23:59 33.42894 -97.99009 33831 ft 538 kts 18°
2026-05-06 00:00 33.49478 -97.94754 33839 ft 536 kts 18°
2026-05-06 00:00 33.56033 -97.90517 33836 ft 538 kts 18°
2026-05-06 00:01 33.62619 -97.86246 33838 ft 536 kts 18°
2026-05-06 00:01 33.69205 -97.81966 33835 ft 539 kts 18°
2026-05-06 00:02 33.75803 -97.77676 33847 ft 538 kts 18°
2026-05-06 00:02 33.82392 -97.73399 33845 ft 537 kts 17°
2026-05-06 00:03 33.88976 -97.69133 33843 ft 536 kts 17°
2026-05-06 00:03 33.95533 -97.64882 33847 ft 537 kts 17°
2026-05-06 00:04 34.02155 -97.60559 33846 ft 539 kts 17°
2026-05-06 00:04 34.08747 -97.56242 33983 ft 540 kts 18°
2026-05-06 00:05 34.15390 -97.51879 34164 ft 539 kts 17°
2026-05-06 00:05 34.18690 -97.49709 34252 ft 539 kts 17°
2026-05-06 00:05 34.21973 -97.47543 34359 ft 537 kts 17°
2026-05-06 00:06 34.25221 -97.45400 34505 ft 535 kts 17°
2026-05-06 00:06 34.28507 -97.43230 34653 ft 537 kts 17°
2026-05-06 00:06 34.31755 -97.40987 34799 ft 540 kts 19°
2026-05-06 00:06 34.34976 -97.38586 34948 ft 542 kts 21°
2026-05-06 00:07 34.38124 -97.36121 35091 ft 543 kts 22°
2026-05-06 00:07 34.41299 -97.33562 35236 ft 543 kts 24°
2026-05-06 00:07 34.44471 -97.30993 35384 ft 546 kts 23°
2026-05-06 00:07 34.47601 -97.28480 35529 ft 544 kts 23°
2026-05-06 00:08 34.50811 -97.25932 35680 ft 546 kts 22°
2026-05-06 00:08 34.54003 -97.23418 35825 ft 547 kts 22°
2026-05-06 00:08 34.57171 -97.20925 35973 ft 542 kts 22°
2026-05-06 00:08 34.60348 -97.18421 36121 ft 537 kts 22°
2026-05-06 00:09 34.63487 -97.15954 36271 ft 539 kts 22°
2026-05-06 00:09 34.66663 -97.13474 36422 ft 541 kts 21°
2026-05-06 00:09 34.69851 -97.10985 36572 ft 542 kts 21°
2026-05-06 00:09 34.73047 -97.08457 36722 ft 540 kts 22°
2026-05-06 00:10 34.76189 -97.05971 36871 ft 539 kts 21°
2026-05-06 00:10 34.79338 -97.03486 37020 ft 536 kts 21°
2026-05-06 00:10 34.82463 -97.01029 37172 ft 535 kts 21°
2026-05-06 00:10 34.85650 -96.98530 37325 ft 538 kts 21°
2026-05-06 00:11 34.88779 -96.96085 37469 ft 539 kts 21°
2026-05-06 00:11 34.91919 -96.93549 37620 ft 543 kts 23°
2026-05-06 00:11 34.94986 -96.90842 37767 ft 545 kts 26°
2026-05-06 00:12 35.00985 -96.85104 37847 ft 554 kts 28°
2026-05-06 00:12 35.06919 -96.79220 37860 ft 547 kts 28°
2026-05-06 00:13 35.12818 -96.73400 37869 ft 551 kts 27°
2026-05-06 00:13 35.18850 -96.67563 37881 ft 551 kts 26°
2026-05-06 00:14 35.24806 -96.61813 38024 ft 546 kts 27°
2026-05-06 00:14 35.30827 -96.56049 38170 ft 549 kts 27°
2026-05-06 00:15 35.36787 -96.50270 38319 ft 544 kts 27°
2026-05-06 00:15 35.42754 -96.44489 38469 ft 549 kts 26°
2026-05-06 00:16 35.48680 -96.38728 38700 ft 547 kts 26°
2026-05-06 00:16 35.51690 -96.35800 38848 ft 547 kts 27°
2026-05-06 00:16 35.54653 -96.32909 38993 ft 547 kts 27°
2026-05-06 00:16 35.57629 -96.30005 39160 ft 548 kts 27°
2026-05-06 00:17 35.60649 -96.27077 39329 ft 547 kts 27°
2026-05-06 00:17 35.63626 -96.24187 39500 ft 547 kts 28°
2026-05-06 00:17 35.66593 -96.21290 39671 ft 546 kts 27°
2026-05-06 00:17 35.69545 -96.18399 39838 ft 546 kts 27°
2026-05-06 00:18 35.72524 -96.15482 39873 ft 547 kts 27°
2026-05-06 00:18 35.78469 -96.09644 39878 ft 544 kts 28°
2026-05-06 00:19 35.84409 -96.03758 39887 ft 543 kts 27°
2026-05-06 00:19 35.90321 -95.97961 39891 ft 543 kts 27°
2026-05-06 00:20 35.96257 -95.92168 39891 ft 544 kts 27°
2026-05-06 00:20 36.02173 -95.86391 39886 ft 541 kts 27°
2026-05-06 00:21 36.08045 -95.80660 39882 ft 544 kts 27°
2026-05-06 00:21 36.13968 -95.74823 39887 ft 544 kts 27°
2026-05-06 00:22 36.19854 -95.68996 39884 ft 541 kts 27°
2026-05-06 00:22 36.25726 -95.63200 39881 ft 540 kts 26°
2026-05-06 00:23 36.31633 -95.57365 39882 ft 543 kts 27°
2026-05-06 00:23 36.37546 -95.51485 39879 ft 544 kts 28°
2026-05-06 00:24 36.43434 -95.45612 39870 ft 544 kts 27°
2026-05-06 00:24 36.49323 -95.39753 39876 ft 545 kts 26°
2026-05-06 00:25 36.55286 -95.33820 39876 ft 547 kts 28°
2026-05-06 00:25 36.61150 -95.27907 39884 ft 539 kts 27°
2026-05-06 00:26 36.66951 -95.22032 39881 ft 545 kts 29°
2026-05-06 00:26 36.72621 -95.15613 39886 ft 555 kts 34°
2026-05-06 00:27 36.78101 -95.08841 39883 ft 554 kts 36°
2026-05-06 00:27 36.83518 -95.02032 39896 ft 551 kts 35°
2026-05-06 00:28 36.88984 -94.95309 39905 ft 554 kts 34°
2026-05-06 00:28 36.94472 -94.88618 39903 ft 552 kts 35°
2026-05-06 00:29 36.99960 -94.81925 39913 ft 553 kts 34°
2026-05-06 00:29 37.05479 -94.75191 39905 ft 551 kts 34°
2026-05-06 00:30 37.10928 -94.68517 39912 ft 551 kts 34°
2026-05-06 00:30 37.16450 -94.61758 39908 ft 553 kts 34°
2026-05-06 00:31 37.21927 -94.55006 39914 ft 553 kts 35°
2026-05-06 00:31 37.27381 -94.48296 39918 ft 550 kts 35°
2026-05-06 00:32 37.32884 -94.41537 39918 ft 554 kts 34°
2026-05-06 00:32 37.38411 -94.34716 39919 ft 551 kts 35°
2026-05-06 00:33 37.43853 -94.27958 39919 ft 551 kts 35°
2026-05-06 00:33 37.49348 -94.21123 39920 ft 550 kts 35°
2026-05-06 00:34 37.54829 -94.14320 39925 ft 553 kts 35°
2026-05-06 00:34 37.60269 -94.07560 39926 ft 550 kts 35°
2026-05-06 00:35 37.65712 -94.00747 39929 ft 553 kts 34°
2026-05-06 00:35 37.71163 -93.93908 39931 ft 553 kts 34°
2026-05-06 00:36 37.76611 -93.87083 39935 ft 551 kts 35°
2026-05-06 00:36 37.82024 -93.80267 39938 ft 552 kts 35°
2026-05-06 00:37 37.87479 -93.73380 39941 ft 554 kts 35°
2026-05-06 00:37 37.92899 -93.66528 39935 ft 550 kts 34°
2026-05-06 00:38 37.98297 -93.59699 39936 ft 551 kts 35°
2026-05-06 00:38 38.03705 -93.52814 39931 ft 553 kts 35°
2026-05-06 00:39 38.09119 -93.45910 39936 ft 550 kts 35°
2026-05-06 00:39 38.14514 -93.39014 39938 ft 549 kts 35°
2026-05-06 00:40 38.19905 -93.32153 39941 ft 549 kts 35°
2026-05-06 00:40 38.25301 -93.25259 39950 ft 550 kts 36°
2026-05-06 00:41 38.30667 -93.18375 39946 ft 549 kts 36°
2026-05-06 00:41 38.36038 -93.11452 39942 ft 547 kts 36°
2026-05-06 00:42 38.41387 -93.04534 39933 ft 550 kts 36°
2026-05-06 00:42 38.46714 -92.97613 39938 ft 546 kts 36°
2026-05-06 00:43 38.52071 -92.90713 39933 ft 548 kts 35°
2026-05-06 00:43 38.57442 -92.83738 39931 ft 545 kts 36°
2026-05-06 00:44 38.62743 -92.76814 39930 ft 548 kts 35°
2026-05-06 00:44 38.68067 -92.69891 39936 ft 548 kts 36°
2026-05-06 00:45 38.73420 -92.62920 39938 ft 550 kts 36°
2026-05-06 00:45 38.78707 -92.55992 39940 ft 546 kts 36°
2026-05-06 00:46 38.84036 -92.48987 39938 ft 547 kts 35°
2026-05-06 00:46 38.89328 -92.42044 39938 ft 550 kts 36°
2026-05-06 00:47 38.94644 -92.35023 39936 ft 544 kts 35°
2026-05-06 00:47 38.99904 -92.28062 39939 ft 547 kts 36°
2026-05-06 00:48 39.05211 -92.21029 39928 ft 548 kts 36°
2026-05-06 00:48 39.10543 -92.13927 39935 ft 549 kts 36°
2026-05-06 00:49 39.15751 -92.06764 39928 ft 552 kts 39°
2026-05-06 00:49 39.20783 -91.99294 39928 ft 555 kts 40°
2026-05-06 00:50 39.25780 -91.91772 39930 ft 554 kts 40°
2026-05-06 00:50 39.30792 -91.84276 39923 ft 550 kts 40°
2026-05-06 00:51 39.35801 -91.76808 39928 ft 552 kts 40°
2026-05-06 00:51 39.40827 -91.69340 39926 ft 553 kts 40°
2026-05-06 00:52 39.45853 -91.61846 39925 ft 550 kts 40°
2026-05-06 00:52 39.50875 -91.54354 39922 ft 552 kts 39°
2026-05-06 00:53 39.55873 -91.46878 39926 ft 549 kts 39°
2026-05-06 00:53 39.60844 -91.39410 39925 ft 550 kts 39°
2026-05-06 00:54 39.65852 -91.31898 39929 ft 549 kts 40°
2026-05-06 00:54 39.70849 -91.24394 39922 ft 549 kts 40°
2026-05-06 00:55 39.75799 -91.16918 39925 ft 549 kts 41°
2026-05-06 00:55 39.80777 -91.09373 39927 ft 551 kts 40°
2026-05-06 00:56 39.85711 -91.01859 39920 ft 547 kts 40°
2026-05-06 00:56 39.90679 -90.94284 39920 ft 549 kts 40°
2026-05-06 00:57 39.95618 -90.86745 39926 ft 549 kts 40°
2026-05-06 00:57 40.00547 -90.79195 39927 ft 547 kts 40°
2026-05-06 00:58 40.05466 -90.71603 39924 ft 550 kts 41°
2026-05-06 00:58 40.10269 -90.63880 39919 ft 550 kts 43°
2026-05-06 00:59 40.15064 -90.55994 39920 ft 550 kts 43°
2026-05-06 00:59 40.19819 -90.48206 39916 ft 550 kts 42°
2026-05-06 01:00 40.24596 -90.40416 39921 ft 549 kts 42°
2026-05-06 01:00 40.29383 -90.32610 39911 ft 549 kts 43°
2026-05-06 01:01 40.34125 -90.24830 39910 ft 548 kts 43°
2026-05-06 01:01 40.38898 -90.17010 39905 ft 549 kts 43°
2026-05-06 01:02 40.43665 -90.09175 39901 ft 548 kts 43°
2026-05-06 01:02 40.48416 -90.01350 39909 ft 548 kts 43°
2026-05-06 01:03 40.53200 -89.93462 39910 ft 550 kts 43°
2026-05-06 01:03 40.57962 -89.85574 39911 ft 547 kts 43°
2026-05-06 01:04 40.62704 -89.77708 39905 ft 549 kts 42°
2026-05-06 01:04 40.67428 -89.69872 39903 ft 548 kts 42°
2026-05-06 01:05 40.72119 -89.62013 39903 ft 546 kts 43°
2026-05-06 01:05 40.76822 -89.54131 39903 ft 548 kts 42°
2026-05-06 01:06 40.81532 -89.46258 39899 ft 546 kts 43°
2026-05-06 01:06 40.86252 -89.38334 39901 ft 550 kts 42°
2026-05-06 01:07 40.90955 -89.30383 39899 ft 545 kts 43°
2026-05-06 01:07 40.95621 -89.22478 39894 ft 546 kts 43°
2026-05-06 01:08 41.00308 -89.14571 39895 ft 548 kts 43°
2026-05-06 01:08 41.04972 -89.06652 39897 ft 546 kts 43°
2026-05-06 01:09 41.09592 -88.98772 39903 ft 546 kts 43°
2026-05-06 01:09 41.14253 -88.90806 39900 ft 547 kts 43°
2026-05-06 01:10 41.18922 -88.82821 39894 ft 546 kts 43°
2026-05-06 01:10 41.23555 -88.74854 39890 ft 545 kts 43°
2026-05-06 01:11 41.28173 -88.66885 39897 ft 543 kts 43°
2026-05-06 01:11 41.32775 -88.58928 39897 ft 544 kts 43°
2026-05-06 01:12 41.37386 -88.50978 39897 ft 543 kts 43°
2026-05-06 01:12 41.42085 -88.43038 39892 ft 545 kts 41°
2026-05-06 01:13 41.46788 -88.35214 39891 ft 542 kts 44°
2026-05-06 01:13 41.50505 -88.26334 39899 ft 564 kts 68°
2026-05-06 01:14 41.52568 -88.10667 39889 ft 573 kts 81°
2026-05-06 01:14 41.53421 -88.00230 39891 ft 570 kts 83°
2026-05-06 01:15 41.54272 -87.89716 39878 ft 573 kts 82°
2026-05-06 01:15 41.55190 -87.79132 39884 ft 572 kts 81°
2026-05-06 01:16 41.56105 -87.68636 39876 ft 570 kts 81°
2026-05-06 01:16 41.57107 -87.58135 39878 ft 571 kts 81°
2026-05-06 01:17 41.57997 -87.47630 39880 ft 571 kts 82°
2026-05-06 01:17 41.58527 -87.37144 39891 ft 572 kts 87°
2026-05-06 01:18 41.58467 -87.26536 39887 ft 571 kts 94°
2026-05-06 01:18 41.57609 -87.16067 39880 ft 569 kts 102°
2026-05-06 01:19 41.55765 -87.05801 39889 ft 566 kts 112°
2026-05-06 01:19 41.52874 -86.96208 39880 ft 556 kts 123°
2026-05-06 01:20 41.48864 -86.87492 39886 ft 548 kts 135°
2026-05-06 01:20 41.43808 -86.80115 39883 ft 529 kts 149°
2026-05-06 01:21 41.40980 -86.77110 39886 ft 517 kts 156°
2026-05-06 01:21 41.37980 -86.74605 39874 ft 505 kts 164°
2026-05-06 01:21 41.34848 -86.72665 39884 ft 493 kts 172°
2026-05-06 01:21 41.31608 -86.71330 39883 ft 475 kts 181°
2026-05-06 01:22 41.28429 -86.70676 39880 ft 454 kts 191°
2026-05-06 01:22 41.25330 -86.70699 39883 ft 435 kts 200°
2026-05-06 01:22 41.22435 -86.71381 39886 ft 416 kts 210°
2026-05-06 01:22 41.19818 -86.72678 39886 ft 398 kts 219°
2026-05-06 01:23 41.17504 -86.74575 39890 ft 380 kts 230°
2026-05-06 01:23 41.15630 -86.76965 39884 ft 367 kts 240°
2026-05-06 01:23 41.14269 -86.79722 39896 ft 353 kts 251°
2026-05-06 01:23 41.13466 -86.82741 39891 ft 344 kts 262°
2026-05-06 01:24 41.13244 -86.85845 39643 ft 342 kts 272°
2026-05-06 01:24 41.13615 -86.88948 39196 ft 339 kts 283°
2026-05-06 01:24 41.14567 -86.91796 38748 ft 340 kts 294°
2026-05-06 01:24 41.16051 -86.94268 38301 ft 346 kts 306°
2026-05-06 01:25 41.17985 -86.96236 37857 ft 357 kts 317°
2026-05-06 01:25 41.20292 -86.97612 37408 ft 371 kts 327°
2026-05-06 01:25 41.22884 -86.98332 36920 ft 388 kts 338°
2026-05-06 01:25 41.25640 -86.98385 36060 ft 414 kts 348°
2026-05-06 01:26 41.28549 -86.97815 34937 ft 437 kts 354°
2026-05-06 01:26 41.31524 -86.97484 33782 ft 418 kts 341°
2026-05-06 01:26 41.34240 -86.98223 32834 ft 393 kts 325°
2026-05-06 01:26 41.36524 -86.99980 31898 ft 375 kts 310°
2026-05-06 01:27 41.38487 -87.02248 30939 ft 377 kts 307°
2026-05-06 01:27 41.40398 -87.04686 29968 ft 384 kts 306°
2026-05-06 01:27 41.42298 -87.07187 28895 ft 391 kts 306°
2026-05-06 01:27 41.44215 -87.09754 27820 ft 397 kts 306°
2026-05-06 01:28 41.46159 -87.12397 26750 ft 403 kts 306°
2026-05-06 01:28 41.48053 -87.15086 25692 ft 405 kts 303°
2026-05-06 01:28 41.49826 -87.17958 24639 ft 406 kts 300°
2026-05-06 01:28 41.51541 -87.20967 23594 ft 408 kts 299°
2026-05-06 01:29 41.53197 -87.23972 22565 ft 407 kts 299°
2026-05-06 01:29 41.54831 -87.26975 21560 ft 399 kts 299°
2026-05-06 01:29 41.56372 -87.29982 20554 ft 389 kts 296°
2026-05-06 01:29 41.57749 -87.33028 19545 ft 380 kts 294°
2026-05-06 01:30 41.59014 -87.36038 18540 ft 372 kts 293°
2026-05-06 01:30 41.60225 -87.39016 17550 ft 365 kts 293°
2026-05-06 01:30 41.61403 -87.41971 16557 ft 359 kts 294°
2026-05-06 01:30 41.62513 -87.44868 15563 ft 352 kts 290°
2026-05-06 01:31 41.63128 -87.47934 14561 ft 341 kts 272°
2026-05-06 01:31 41.62870 -87.51023 13555 ft 336 kts 253°
2026-05-06 01:31 41.61766 -87.53706 12558 ft 336 kts 232°
2026-05-06 01:31 41.59954 -87.55653 11550 ft 340 kts 211°
2026-05-06 01:32 41.57710 -87.56554 10544 ft 346 kts 190°
2026-05-06 01:32 41.55298 -87.56276 9521 ft 353 kts 168°
2026-05-06 01:32 41.53129 -87.54858 8506 ft 358 kts 146°
2026-05-06 01:32 41.51447 -87.52460 7479 ft 359 kts 123°
2026-05-06 01:33 41.50514 -87.49406 6446 ft 355 kts 99°
2026-05-06 01:33 41.50473 -87.46217 5425 ft 347 kts 78°
2026-05-06 01:33 41.51295 -87.43291 4405 ft 337 kts 56°
2026-05-06 01:33 41.52865 -87.41093 3633 ft 319 kts 32°
2026-05-06 01:34 41.54832 -87.40053 3262 ft 292 kts
2026-05-06 01:34 41.56736 -87.40279 3211 ft 262 kts 340°
2026-05-06 01:34 41.58193 -87.41501 3214 ft 245 kts 320°
2026-05-06 01:34 41.59366 -87.43054 3201 ft 222 kts 316°
2026-05-06 01:35 41.60332 -87.44421 3209 ft 190 kts 316°
2026-05-06 01:35 41.61178 -87.45702 3224 ft 182 kts 310°
2026-05-06 01:35 41.61896 -87.47091 3213 ft 175 kts 307°
2026-05-06 01:35 41.62532 -87.48360 3187 ft 160 kts 309°
2026-05-06 01:36 41.63178 -87.49571 3187 ft 157 kts 308°
2026-05-06 01:36 41.63736 -87.50829 3189 ft 159 kts 300°
2026-05-06 01:36 41.64146 -87.52205 3191 ft 160 kts 295°
2026-05-06 01:36 41.64523 -87.53576 3190 ft 159 kts 295°
2026-05-06 01:37 41.64976 -87.54926 3191 ft 157 kts 307°
2026-05-06 01:37 41.65600 -87.56119 3190 ft 156 kts 310°
2026-05-06 01:37 41.66231 -87.57297 3187 ft 156 kts 309°
2026-05-06 01:37 41.66863 -87.58482 3161 ft 159 kts 309°
2026-05-06 01:38 41.67547 -87.59629 3093 ft 156 kts 314°
2026-05-06 01:38 41.68263 -87.60719 3086 ft 154 kts 314°
2026-05-06 01:38 41.68973 -87.61802 3110 ft 158 kts 314°
2026-05-06 01:38 41.69704 -87.62905 3016 ft 157 kts 315°
2026-05-06 01:39 41.70443 -87.63972 2749 ft 160 kts 316°
2026-05-06 01:39 41.71217 -87.65038 2317 ft 157 kts 317°
2026-05-06 01:39 41.71980 -87.66067 1949 ft 153 kts 315°
2026-05-06 01:39 41.72708 -87.67073 1870 ft 151 kts 315°
2026-05-06 01:40 41.73454 -87.68098 1873 ft 154 kts 315°
2026-05-06 01:40 41.74204 -87.69151 1762 ft 155 kts 314°
2026-05-06 01:40 41.74920 -87.70199 1499 ft 151 kts 313°
2026-05-06 01:40 41.75641 -87.71239 1017 ft 153 kts 313°
2026-05-06 01:41 41.76397 -87.72297 1041 ft 167 kts 315°
2026-05-06 01:41 41.77153 -87.73317 868 ft 150 kts 315°
2026-05-06 01:41 41.77879 -87.74309 636 ft 150 kts 313°
2026-05-06 01:41 41.78468 -87.75136 613 ft 75 kts 314°
2026-05-06 01:42 41.78608 -87.75331 613 ft 0 kts 311°
2026-05-06 01:42 41.78600 -87.75318 613 ft 2 kts 302°
2026-05-06 01:42 41.78593 -87.75304 613 ft 5 kts 301°
2026-05-06 01:42 41.78589 -87.75294 613 ft 2 kts 302°
2026-05-06 01:43 41.78677 -87.75431 613 ft 39 kts 312°
2026-05-06 01:43 41.78801 -87.75652 613 ft 17 kts 287°
2026-05-06 01:43 41.78797 -87.75756 613 ft 8 kts 242°
2026-05-06 01:43 41.78777 -87.75788 613 ft 2 kts 221°
2026-05-06 01:44 41.78766 -87.75800 613 ft 3 kts 221°
2026-05-06 01:44 41.78714 -87.75830 613 ft 12 kts 143°
2026-05-06 01:44 41.78643 -87.75745 613 ft 23 kts 139°
2026-05-06 01:44 41.78480 -87.75522 616 ft 39 kts 134°
2026-05-06 01:45 41.78320 -87.75303 616 ft 20 kts 127°
2026-05-06 01:45 41.78376 -87.75145 615 ft 24 kts 42°
2026-05-06 01:45 41.78513 -87.74979 613 ft 26 kts 46°
2026-05-06 01:45 41.78622 -87.74830 613 ft 11 kts 57°
2026-05-06 01:46 41.78645 -87.74751 613 ft 7 kts 78°
2026-05-06 01:46 41.78654 -87.74693 613 ft 4 kts 89°
2026-05-06 01:46 41.78652 -87.74667 613 ft 0 kts 103°